DMSP 5D-2 F13 DEB

Satellite information

Favourite Embed

Satellite Type and Status

DEBRISIN ORBIT

Key statistics

Satellite DMSP 5D-2 F13 DEB at a glance.

Uptime

11121

Days in orbit

Revolutions

≈ 14.4

Per day

Orbit

SSO

Sun Synchronous Orbit

Inclination

98.6

Latest

Satellite identification and parameters

Extended collection of information and parameters for DMSP 5D-2 F13 DEB.

Object identification

Identified? True

Debris? True

Object name: DMSP 5D-2 F13 DEB

International designator: 1995-015HS

Object number (NORAD): 42300

Object ID (CCSDS): 42300

Country: UNITED STATES OF AMERICA (US)

Current information (Y/N): Y

RCS size: SMALL

Orbital parameters

Period: 99.855 minutes

Inclination: 98.6116 deg

SMA: 7129.742 km

Apoapsis: 771.091 km

Periapsis: 732.123 km

RAAN: 279.8524 deg

Eccentricy: 0.00273275

Argument of periapsis: 82.3498 deg

Mean anomaly: 278.0793 deg

Mean motion: 14.42088835 rev/day

Mean motion (dot): 0.00008782 rev/day2

B* drag term: 0.0026709058 1/REarth

Two-line elements (TLE)

Creation date: Aug. 31, 2025, 11:35 a.m.

Reference frame: TEME

Reference center: EARTH

Epoch: Aug. 31, 2025, 1:24 a.m. UTC

TLE line 0: 0 DMSP 5D-2 F13 DEB

TLE line 1: 1 42300U 95015HS 25243.05844602 .00008782 00000-0 26709-2 0 9995

TLE line 2: 2 42300 98.6116 279.8524 0027328 82.3498 278.0793 14.42088835459259

Live tracking on map

Real-time ground track for satellite DMSP 5D-2 F13 DEB.

In-orbit conjunctions

A list of the most updated potential collisions computed for object DMSP 5D-2 F13 DEB.

Target Orbit TCA Probability of collision Miss distance Type
CZ-6A DEB LEO 2025-05-12 07:54:03 0.0001370679 210.0 (m) DEBRIS
COSMOS 1538 LEO 2024-12-12 22:36:50 0.0001262299 798.0 (m) PAYLOAD
ORBCOMM FM 16 DEB LEO 2024-11-15 10:23:29 0.001407841 339.0 (m) DEBRIS

Associated space launch

Military meteorological satellite

DMSP 5D-2 F13 DEB was lifted into orbit during the mission ‘Atlas E | DMSP-5D2 F13’, on board a Atlas E space rocket.

The launch took place on March 24, 1995, 2:05 p.m. from Space Launch Complex 3W.

For more information about the launch, click the button.

Launch to space Atlas E | DMSP-5D2 F13
Atlas E | DMSP-5D2 F13

Agency: N/A

Status: Launch Successful

Launch date: March 24, 1995, 2:05 p.m. UTC

Rocket: Atlas E

Launch pad: Space Launch Complex 3W

Location: Vandenberg SFB, CA, USA

...

Latest news about this satellite

There are no fresh news available about this satellite. Check back as we update our databases every day.


Newsletter sign-up

Weekly statistics, charts and insights to help you stay on top of the space industry.